Regional Weather Roundup
Issued by NWS

Home | Current Version | Previous Version | Text Only | Print | Product List | Glossary On
Versions: 1 2 3 4 5 6 7 8 9 10 11 12 13 14 15 16 17 18 19 20 21 22 23 24 25 26 27 28 29 30 31 32 33 34 35 36 37 38 39 40 41 42 43 44 45 46 47 48 49 50
000
ASUS43 KLOT 061421
RWRIL

ILLINOIS REGIONAL WEATHER ROUNDUP
NATIONAL WEATHER SERVICE CHICAGO/ROMEOVILLE IL
900 AM CDT MON JUL 06 2015

NOTE: "FAIR" INDICATES FEW OR NO CLOUDS BELOW 12,000 FEET WITH NO
SIGNIFICANT WEATHER AND/OR OBSTRUCTIONS TO VISIBILITY.

* THESE STATIONS ARE NOT UNDER NWS QUALITY CONTROL. THEY ALSO MAY NOT
  REPORT WEATHER SUCH AS PRECIPITATION OR FOG.

ILZ001-002-007-009-015-016-024-061500-
NORTHWEST ILLINOIS

CITY           SKY/WX    TMP DP  RH WIND       PRES   REMARKS
MOLINE         CLOUDY    76  70  82 SW7       29.92R
STERLING*      CLOUDY    77  72  83 S8        29.94S
SAVANNA*       CLOUDY    74  69  83 S7        29.92R HAZE
$$

ILZ003-004-008-010-011-017-018-061500-
NORTH CENTRAL ILLINOIS

CITY           SKY/WX    TMP DP  RH WIND       PRES   REMARKS
ROCKFORD       CLOUDY    75  68  78 S13       29.96R
FREEPORT*      CLOUDY    73  69  88 S10       29.95S FOG
ROCHELLE*      CLOUDY    72  68  86 S10       29.97R FOG
DE KALB*       PTSUNNY   72  67  85 S14       29.99R HAZE
PERU*          PTSUNNY   75  69  79 S13       29.98R HAZE
$$

ILZ005-006-012>014-019>023-061500-
NORTHEAST ILLINOIS

CITY           SKY/WX    TMP DP  RH WIND       PRES   REMARKS
CHICAGO-OHARE  MOSUNNY   76  67  73 S10       29.98S HAZE
CHICAGO-MIDWAY MOSUNNY   77  67  71 S10       29.98F
AURORA         PTSUNNY   76  67  73 S13       29.98S HAZE
LANSING*       MOSUNNY   75  65  72 S10       30.00F
JOLIET*        MOSUNNY   76  70  80 S9        29.99S
WAUKEGAN       PTSUNNY   75  66  73 S8        29.96S HAZE
DUPAGE AIRPORT PTSUNNY   75  68  78 S10       29.97S HAZE
KANKAKEE*      MOSUNNY   76  69  78 S12       30.02F
WHEELING       PTSUNNY   76  66  71 S12       29.98F
MORRIS*        PTSUNNY   75  68  77 S12       29.96F
ROMEOVILLE*    MOSUNNY   75  67  76 S10       29.99S HAZE
NORTHERLY ISL    N/A     75  65  70 S7          N/A
$$

LMZ740>746-061500-
SOUTHERN LAKE MICHIGAN

STATION/POSITION SKY/WX   TEMP    WIND        PRES    VSBY  WAVE
                          AIR SEA DIR/SP/G                  HT/PER
                          (F)     (DEG/KT/KT) (MB)    (MI)  (FT/S)
HARRISON CRIB              70     170/ 12/ 13   N/A
BURNHAM HARBOR             76     150/  7/ 10   N/A
CALUMET HARBOR             75     180/  7/  9   N/A
BURNS HARBOR               72     180/  8/ 12 1017.3F
MICHIGAN CITY              73     160/ 11/ 13   N/A
MICHIGAN CITY 6N           70 66  180/  8/ 10   N/A           1
ST. JOSEPH                 68 65  210/  8/  8   N/A           1
$$

ILZ025>027-034>036-040-047-049-050-058-095>099-061500-
WEST-CENTRAL ILLINOIS

CITY           SKY/WX    TMP DP  RH WIND       PRES   REMARKS
QUINCY         CLOUDY    77  72  84 S10       29.97R
GALESBURG*     CLOUDY    76  71  84 S8        29.96R
MACOMB*        CLOUDY    75  72  88 S7        29.98R
JACKSONVILLE*  PTSUNNY   79  73  82 S12       29.99R HAZE    HX  82
PITTSFIELD*    MOSUNNY   78  73  84 S7        30.00R HX  80
$$

ILZ028>032-037-038-041>044-048-051>054-059>061-061500-
CENTRAL ILLINOIS

CITY           SKY/WX    TMP DP  RH WIND       PRES   REMARKS
PONTIAC        MOSUNNY   76  70  84 S12       30.01R HAZE
BLOOMINGTON    MOSUNNY   76  70  82 S17       30.03S
DECATUR        MOSUNNY   77  69  76 S13       30.02F
PEORIA         PTSUNNY   76  69  79 S12       29.98R HAZE
LACON*         PTSUNNY   75  69  80 S9        29.96S
LINCOLN*       MOSUNNY   78  70  78 S14       30.00S HAZE    HX  80
SPRINGFIELD    MOSUNNY   79  72  79 S14       30.00S HX  82
TAYLORVILLE    MOSUNNY   73  72  94 S12       30.03R FOG
$$

ILZ033-039-045-046-055>057-062-063-061500-
EAST-CENTRAL ILLINOIS

CITY           SKY/WX    TMP DP  RH WIND       PRES   REMARKS
CHAMPAIGN      SUNNY     75  69  81 S10       30.03F HAZE
DANVILLE*      SUNNY     73  70  88 SE7       30.03F FOG
RANTOUL*       MOSUNNY   76  70  83 S9        30.03F HAZE
MATTOON        SUNNY     75  69  81 S9        30.04F HAZE
PARIS*         SUNNY     74  71  90 SE6       30.06F FOG
$$

ILZ079-100>102-061500-
SOUTHWEST ILLINOIS

CITY           SKY/WX    TMP DP  RH WIND       PRES   REMARKS
BELLEVILLE     CLOUDY    78  77  99 S10       30.02R
CAHOKIA*       SUNNY     78  72  81 S5        30.02S HX  80
SPARTA*        CLOUDY    76  72  86 S10G20    30.05F
$$

ILZ064>066-069>071-074>076-080>082-084>086-088>090-092>094-061500-
SOUTH-CENTRAL ILLINOIS

CITY           SKY/WX    TMP DP  RH WIND       PRES   REMARKS
CARBONDALE     CLOUDY    76  71  85 S12       30.06F
CAIRO*         CLOUDY    75  73  92 S6        30.09S
EFFINGHAM*     SUNNY     76  70  80 SE7       30.06F
MARION         CLOUDY    77  73  88 S8        30.07F
MT. VERNON     CLOUDY    75  70  83 S9        30.07S
CENTRALIA*     CLOUDY    73  69  89 S9        30.05S FOG
SALEM*         CLOUDY    76  72  87 S8        30.05F FOG
$$

ILZ067-068-072-073-078-083-087-091-061500-
SOUTHEAST ILLINOIS

CITY           SKY/WX    TMP DP  RH WIND       PRES   REMARKS
LAWRENCEVILLE  SUNNY     75  70  84 S6        30.07S HAZE
FLORA*         SUNNY     76  71  86 S6        30.05F
FAIRFIELD*     SUNNY     77  73  87 S7        30.05F
HARRISBURG*    CLOUDY    75  74  96 SW10      30.09S FOG
ROBINSON*      SUNNY     75  69  81 S5        30.08S
CARMI*         SUNNY     77  69  75 S6        30.06F
$$

ABBREVIATIONS USED IN REMARKS
   TC - TEMPERATURE IN CELSIUS
  WCI - WIND CHILL INDEX
   HX - HEAT INDEX
  VSB - VISIBILITY
$$



USA.gov is the U.S. government's official web portal to all federal, state and local government web resources and services.